�N����,����,�~����,�C��,���x,�C��,����,���ϕ���,�ő�u�ԕ���,�ő厞����,���˗�,�I�_���x,�n�����x,�ő啗���N��,DTYPE
"17/07/12","00:10",0.0,26.6,82.9,1005.5,298.8,0.2,0.5,328.2,0.00,23.5,27.3,"00:00:08",1
"17/07/12","00:20",0.0,26.4,83.8,1005.7,331.0,0.2,0.6,255.3,0.00,23.5,27.1,"00:19:44",1
"17/07/12","00:30",0.0,26.2,84.2,1005.5,281.1,0.6,1.1,275.9,0.00,23.4,27.1,"00:28:00",1
"17/07/12","00:40",0.0,26.2,84.2,1005.5,266.6,0.8,1.2,275.5,0.00,23.4,27.3,"00:36:24",1
"17/07/12","00:50",0.0,26.2,84.5,1005.5,319.6,0.7,1.2,5.3,0.00,23.4,27.0,"00:46:48",1
"17/07/12","01:00",0.0,26.0,85.5,1005.5,323.3,0.8,1.3,306.7,0.00,23.4,27.2,"00:56:56",1
"17/07/12","01:10",0.0,25.7,86.4,1005.5,321.3,0.7,1.0,340.4,0.00,23.3,27.0,"01:01:36",1
"17/07/12","01:20",0.0,25.4,87.1,1005.5,313.0,0.7,1.1,323.0,0.00,23.1,27.0,"01:12:32",1
"17/07/12","01:30",0.0,25.4,87.5,1005.5,328.6,0.8,1.4,328.8,0.00,23.2,26.9,"01:25:52",1
"17/07/12","01:40",0.0,25.3,87.8,1005.5,289.0,0.6,1.1,324.4,0.00,23.2,26.8,"01:30:32",1
"17/07/12","01:50",0.0,25.3,88.0,1005.7,315.3,0.2,0.6,328.8,0.00,23.2,26.7,"01:42:08",1
"17/07/12","02:00",0.0,25.4,88.2,1005.5,291.4,0.6,1.0,311.2,0.00,23.3,26.7,"01:51:28",1
"17/07/12","02:10",0.0,25.4,87.9,1005.5,309.6,0.8,1.4,333.0,0.00,23.3,26.6,"02:06:32",1
"17/07/12","02:20",0.0,25.4,87.7,1005.5,300.2,0.8,1.6,344.3,0.00,23.3,26.7,"02:13:12",1
"17/07/12","02:30",0.0,25.4,87.6,1005.5,307.9,0.8,1.6,322.3,0.00,23.2,26.7,"02:21:44",1
"17/07/12","02:40",0.0,25.4,87.5,1005.5,311.4,0.7,1.0,316.9,0.00,23.2,26.6,"02:34:32",1
"17/07/12","02:50",0.0,25.3,87.8,1005.5,312.5,0.7,1.2,332.5,0.00,23.2,26.7,"02:43:52",1
"17/07/12","03:00",0.0,25.2,88.2,1005.5,279.0,0.6,0.9,315.7,0.00,23.1,26.4,"02:54:24",1
"17/07/12","03:10",0.0,25.2,88.5,1005.5,289.9,0.5,0.9,304.0,0.00,23.2,26.6,"03:02:56",1
"17/07/12","03:20",0.0,25.1,88.7,1005.2,292.3,0.7,1.1,306.2,0.00,23.1,26.5,"03:13:44",1
"17/07/12","03:30",0.0,25.1,88.9,1005.5,300.5,0.5,0.9,320.6,0.00,23.2,26.4,"03:22:16",1
"17/07/12","03:40",0.0,25.2,88.9,1005.2,292.0,0.5,0.8,310.8,0.00,23.3,26.3,"03:35:04",1
"17/07/12","03:50",0.0,25.3,88.9,1005.7,312.5,0.7,1.3,326.9,0.00,23.4,26.5,"03:47:12",1
"17/07/12","04:00",0.0,25.4,88.9,1005.7,329.0,0.7,0.9,331.5,0.00,23.5,26.4,"03:50:08",1
"17/07/12","04:10",0.0,25.3,89.2,1005.5,325.5,0.8,1.2,329.4,0.00,23.4,26.3,"04:02:16",1
"17/07/12","04:20",0.0,25.1,89.1,1005.5,308.4,0.5,1.0,338.4,0.00,23.2,26.4,"04:13:44",1
"17/07/12","04:30",0.0,25.1,89.2,1005.2,293.0,0.6,0.9,261.9,0.00,23.2,26.3,"04:20:24",1
"17/07/12","04:40",0.0,25.0,89.5,1005.5,304.1,0.7,1.2,338.4,0.00,23.2,26.2,"04:37:28",1
"17/07/12","04:50",0.0,25.1,90.1,1005.7,330.3,0.7,1.0,320.8,0.00,23.4,26.2,"04:40:08",1
"17/07/12","05:00",0.0,25.0,90.1,1005.7,317.6,0.6,1.0,344.9,0.00,23.3,26.1,"04:58:08",1
"17/07/12","05:10",0.0,25.0,90.1,1005.7,283.7,0.6,1.0,260.6,0.00,23.3,26.2,"05:07:04",1
"17/07/12","05:20",0.0,24.9,90.2,1005.7,329.3,0.7,1.1,329.1,0.00,23.2,26.1,"05:12:48",1
"17/07/12","05:30",0.0,24.9,90.2,1005.7,293.5,0.6,1.0,263.9,0.00,23.2,26.3,"05:26:08",1
"17/07/12","05:40",0.0,24.8,90.5,1005.5,307.7,0.7,1.0,337.8,0.00,23.2,26.2,"05:32:08",1
"17/07/12","05:50",0.0,24.7,90.8,1005.7,285.5,0.6,1.0,265.2,0.00,23.1,26.3,"05:43:28",1
"17/07/12","06:00",0.0,24.7,91.0,1005.7,291.8,0.6,1.1,316.4,0.00,23.2,25.9,"05:50:56",1
"17/07/12","06:10",0.0,24.8,91.3,1005.5,284.4,0.6,1.1,313.4,0.00,23.3,26.1,"06:01:52",1
"17/07/12","06:20",0.0,24.9,91.1,1005.7,294.0,0.6,0.9,307.4,0.00,23.4,26.1,"06:12:56",1
"17/07/12","06:30",0.0,25.1,91.2,1005.7,277.9,0.5,0.6,280.9,0.00,23.6,26.0,"06:21:04",1
"17/07/12","06:40",0.0,25.6,91.3,1005.7,305.1,0.6,0.9,339.4,0.04,24.1,25.8,"06:39:12",1
"17/07/12","06:50",0.0,26.4,89.4,1005.5,325.0,0.6,1.1,324.0,0.07,24.6,25.8,"06:45:44",1
"17/07/12","07:00",0.0,26.4,88.2,1005.5,307.7,0.3,1.1,349.0,0.01,24.3,25.9,"06:51:52",1
"17/07/12","07:10",0.0,26.5,88.0,1006.0,310.4,0.2,0.9,342.6,0.00,24.4,25.9,"07:08:16",1
"17/07/12","07:20",0.0,26.6,87.8,1005.7,343.5,0.3,0.8,331.1,0.03,24.4,26.1,"07:10:16",1
"17/07/12","07:30",0.0,27.1,87.4,1005.5,339.2,0.6,1.9,346.3,0.07,24.9,26.0,"07:29:28",1
"17/07/12","07:40",0.0,27.2,86.2,1005.7,347.7,1.1,2.0,343.6,0.09,24.7,26.0,"07:31:12",1
"17/07/12","07:50",0.0,27.4,84.5,1006.0,353.4,0.7,1.6,343.1,0.08,24.6,25.9,"07:46:16",1
"17/07/12","08:00",0.0,28.3,82.3,1005.7,335.2,0.5,1.3,349.6,0.16,25.0,26.2,"07:50:02",1
"17/07/12","08:10",0.0,28.4,81.9,1005.5,7.0,0.8,1.8,350.2,0.15,25.0,26.3,"08:04:56",1
"17/07/12","08:20",0.0,28.4,81.9,1005.2,24.1,0.6,1.7,347.3,0.11,25.0,26.3,"08:12:48",1
"17/07/12","08:30",0.0,28.6,81.2,1004.8,7.9,0.7,1.4,3.8,0.13,25.1,26.2,"08:20:32",1
"17/07/12","08:40",0.0,29.3,78.0,1004.8,9.0,0.8,1.6,341.9,0.23,25.1,26.4,"08:31:44",1
"17/07/12","08:50",0.0,29.4,76.9,1005.0,353.5,1.0,2.9,336.8,0.25,25.0,26.4,"08:46:32",1
"17/07/12","09:00",0.0,29.2,78.4,1005.2,256.1,0.5,1.6,339.1,0.17,25.1,26.5,"08:51:36",1
"17/07/12","09:10",0.0,29.5,77.3,1005.5,3.5,0.3,0.9,18.0,0.14,25.1,26.9,"09:09:36",1
"17/07/12","09:20",0.0,30.3,74.4,1005.5,155.5,1.0,1.9,150.7,0.27,25.3,26.7,"09:13:12",1
"17/07/12","09:30",0.0,30.1,74.8,1005.2,175.5,1.3,2.9,194.0,0.25,25.2,27.0,"09:22:56",1
"17/07/12","09:40",0.0,29.7,75.3,1005.2,151.6,0.8,1.6,174.1,0.13,24.9,27.0,"09:39:52",1
"17/07/12","09:50",0.0,29.7,78.3,1005.2,169.6,1.5,2.7,149.0,0.14,25.6,27.1,"09:41:04",1
"17/07/12","10:00",0.0,30.5,75.3,1005.2,181.2,1.5,2.8,214.9,0.27,25.7,27.1,"09:56:16",1
"17/07/12","10:10",0.0,30.6,73.6,1005.2,195.4,0.8,1.8,186.1,0.24,25.4,27.2,"10:08:40",1
"17/07/12","10:20",0.0,30.9,73.3,1005.2,144.0,1.2,2.4,193.1,0.29,25.6,27.4,"10:10:56",1
"17/07/12","10:30",0.0,31.0,70.5,1005.5,181.5,1.2,2.9,176.4,0.30,25.0,27.5,"10:23:04",1
"17/07/12","10:40",0.0,30.6,72.0,1005.2,105.2,0.8,2.6,124.0,0.19,25.0,27.3,"10:39:52",1
"17/07/12","10:50",0.0,30.7,72.2,1005.2,167.8,1.5,3.3,214.8,0.21,25.2,27.5,"10:45:44",1
"17/07/12","11:00",0.0,31.2,70.6,1005.2,158.7,1.3,2.5,227.7,0.26,25.3,27.5,"10:51:20",1
"17/07/12","11:10",0.0,31.0,71.5,1005.2,152.5,1.1,2.0,198.3,0.16,25.3,27.7,"11:00:40",1
"17/07/12","11:20",0.0,30.3,73.4,1005.0,176.1,1.0,3.3,191.4,0.07,25.0,27.9,"11:12:00",1
"17/07/12","11:30",0.0,30.6,72.0,1004.5,313.4,0.7,1.8,227.1,0.14,25.0,27.9,"11:24:32",1
"17/07/12","11:40",0.0,31.2,72.3,1004.8,223.5,0.7,1.4,229.6,0.21,25.7,27.9,"11:36:08",1
"17/07/12","11:50",0.0,31.4,70.4,1004.5,5.5,0.7,2.1,36.9,0.20,25.4,27.8,"11:47:28",1
"17/07/12","12:00",0.0,31.7,70.3,1004.8,341.5,0.8,2.1,347.2,0.25,25.7,27.9,"11:53:04",1
"17/07/12","12:10",0.0,32.2,67.6,1004.8,240.5,1.1,2.6,355.7,0.33,25.5,27.9,"12:00:08",1
"17/07/12","12:20",0.0,33.6,63.8,1005.2,144.9,1.2,2.8,202.0,0.61,25.8,28.3,"12:15:52",1
"17/07/12","12:30",0.0,32.7,64.0,1005.2,162.2,1.1,3.5,169.6,0.34,25.0,28.1,"12:21:12",1
"17/07/12","12:40",0.0,32.5,65.1,1005.5,345.1,1.2,3.7,351.7,0.27,25.1,28.4,"12:34:08",1
"17/07/12","12:50",0.0,32.1,65.2,1005.2,240.5,1.3,3.4,226.6,0.24,24.8,28.6,"12:45:28",1
"17/07/12","13:00",0.0,32.3,65.4,1005.0,271.6,0.7,2.2,285.8,0.21,25.0,28.7,"12:58:40",1
"17/07/12","13:10",0.0,32.2,63.7,1004.8,269.5,1.2,3.5,350.2,0.23,24.5,28.7,"13:07:36",1
"17/07/12","13:20",0.0,32.2,63.8,1004.5,250.6,1.1,3.1,226.6,0.25,24.5,28.4,"13:18:40",1
"17/07/12","13:30",0.0,32.3,64.5,1004.1,251.2,0.7,2.6,321.6,0.21,24.8,28.7,"13:24:40",1
"17/07/12","13:40",0.0,32.2,63.9,1004.1,228.7,1.3,2.5,219.2,0.21,24.5,28.7,"13:34:16",1
"17/07/12","13:50",0.0,32.8,62.5,1003.8,228.4,1.3,3.9,220.3,0.36,24.7,28.8,"13:48:40",1
"17/07/12","14:00",0.0,33.2,60.3,1003.8,245.9,1.7,4.8,225.0,0.50,24.5,29.0,"13:58:48",1
"17/07/12","14:10",0.0,33.0,63.4,1003.6,229.6,1.8,5.1,229.4,0.43,25.2,28.9,"14:04:56",1
"17/07/12","14:20",0.0,33.3,64.4,1003.6,257.9,1.1,2.9,238.0,0.43,25.7,29.0,"14:18:32",1
"17/07/12","14:30",0.0,33.6,60.6,1004.3,226.3,1.6,4.7,215.5,0.54,25.0,29.2,"14:21:36",1
"17/07/12","14:40",0.0,32.1,63.0,1004.1,235.6,1.6,3.4,210.8,0.24,24.2,29.2,"14:34:00",1
"17/07/12","14:50",0.0,31.5,63.9,1004.1,238.0,1.5,2.9,230.0,0.10,23.9,29.2,"14:42:24",1
"17/07/12","15:00",0.0,31.1,65.6,1003.6,175.8,1.1,2.5,219.8,0.06,23.9,29.1,"14:52:56",1
"17/07/12","15:10",0.0,31.1,67.3,1003.4,175.0,0.6,1.9,198.7,0.06,24.4,29.1,"15:02:24",1
"17/07/12","15:20",0.0,30.9,67.0,1002.4,168.4,0.7,1.9,183.1,0.05,24.1,29.1,"15:13:44",1
"17/07/12","15:30",0.0,30.7,68.2,1002.9,251.6,0.7,2.4,218.5,0.04,24.2,29.0,"15:22:48",1
"17/07/12","15:40",0.0,30.6,72.8,1002.4,307.2,0.6,1.3,208.6,0.03,25.2,29.1,"15:30:16",1
"17/07/12","15:50",0.0,30.3,74.6,1002.4,8.0,0.2,1.0,10.5,0.03,25.3,28.9,"15:47:52",1
"17/07/12","16:00",0.0,29.9,75.7,1001.7,324.9,0.5,1.2,341.5,0.02,25.2,28.7,"15:52:48",1
"17/07/12","16:10",0.0,29.7,75.8,1001.5,336.7,0.7,1.8,350.7,0.01,25.0,28.8,"16:06:08",1
"17/07/12","16:20",0.0,29.5,76.1,1001.2,343.4,1.1,2.2,349.4,0.02,24.9,28.9,"16:18:00",1
"17/07/12","16:30",0.0,29.4,76.3,1001.2,334.7,1.1,2.9,349.8,0.01,24.8,28.7,"16:20:32",1
"17/07/12","16:40",0.0,29.1,72.9,1001.0,244.8,1.8,4.0,242.9,0.01,23.8,28.6,"16:37:04",1
"17/07/12","16:50",0.0,28.8,74.5,1001.2,268.3,1.1,2.4,257.7,0.00,23.9,28.4,"16:48:00",1
"17/07/12","17:00",0.0,28.7,75.6,1001.5,297.7,0.8,2.1,332.2,0.00,24.0,28.5,"16:57:12",1
"17/07/12","17:10",0.0,28.4,76.4,1001.5,343.0,2.0,5.0,338.1,0.00,23.9,28.3,"17:07:20",1
"17/07/12","17:20",0.0,28.3,77.4,1001.5,339.2,1.8,3.9,343.1,0.01,24.0,28.2,"17:10:24",1
"17/07/12","17:30",0.0,28.5,77.3,1001.5,337.9,2.1,3.9,342.3,0.03,24.2,28.1,"17:27:52",1
"17/07/12","17:40",0.0,28.7,77.2,1001.5,325.5,1.7,4.1,335.8,0.03,24.3,28.1,"17:30:08",1
"17/07/12","17:50",0.0,28.8,76.6,1001.5,332.2,1.3,2.7,346.0,0.02,24.3,28.1,"17:45:12",1
"17/07/12","18:00",0.0,28.7,76.7,1001.7,331.8,1.1,2.4,351.2,0.01,24.2,27.9,"17:51:04",1
"17/07/12","18:10",0.0,28.8,76.7,1001.5,327.2,0.2,0.9,314.4,0.02,24.3,28.0,"18:08:16",1
"17/07/12","18:20",0.0,29.0,77.2,1001.7,345.3,0.7,1.3,350.0,0.02,24.6,27.8,"18:14:48",1
"17/07/12","18:30",0.0,29.0,77.7,1001.7,341.1,1.0,2.0,4.9,0.02,24.7,27.7,"18:25:52",1
"17/07/12","18:40",0.0,28.8,77.2,1001.5,264.1,0.6,1.7,220.7,0.01,24.4,27.9,"18:38:00",1
"17/07/12","18:50",0.0,28.7,77.0,1001.7,328.6,1.0,1.9,342.0,0.01,24.3,27.9,"18:47:04",1
"17/07/12","19:00",0.0,28.5,77.9,1001.7,338.1,1.3,2.5,341.5,0.00,24.3,27.8,"18:55:12",1
"17/07/12","19:10",0.0,28.2,78.7,1001.9,337.8,0.7,1.7,338.5,0.00,24.2,27.7,"19:04:00",1
"17/07/12","19:20",0.0,28.0,79.2,1001.7,296.8,0.3,0.8,325.0,0.00,24.1,27.7,"19:11:20",1
"17/07/12","19:30",0.0,27.7,80.0,1001.9,284.8,0.6,1.0,322.5,0.00,24.0,27.5,"19:27:12",1
"17/07/12","19:40",0.0,27.5,80.8,1001.9,306.4,1.0,1.4,324.0,0.00,23.9,27.4,"19:32:40",1
"17/07/12","19:50",0.0,27.3,81.9,1002.2,320.2,1.0,1.7,329.1,0.00,24.0,27.6,"19:49:28",1
"17/07/12","20:00",0.0,27.1,82.8,1002.6,320.9,1.3,2.4,343.7,0.00,24.0,27.4,"19:55:44",1
"17/07/12","20:10",0.0,27.1,82.9,1002.6,278.3,0.7,1.3,277.2,0.00,24.0,27.3,"20:05:44",1
"17/07/12","20:20",0.0,27.0,82.8,1002.4,286.0,0.8,1.4,268.5,0.00,23.9,27.2,"20:12:24",1
"17/07/12","20:30",0.0,27.0,82.8,1002.9,272.2,1.1,2.0,236.0,0.00,23.9,27.2,"20:28:56",1
"17/07/12","20:40",0.0,27.0,82.7,1003.1,308.3,1.2,2.4,324.3,0.00,23.8,27.3,"20:34:08",1
"17/07/12","20:50",0.0,26.8,82.9,1003.1,325.1,1.3,2.1,342.7,0.00,23.7,27.1,"20:41:52",1
"17/07/12","21:00",0.0,26.6,83.5,1003.4,276.5,0.8,1.2,302.7,0.00,23.6,27.1,"20:50:24",1
"17/07/12","21:10",0.0,26.3,84.6,1003.4,287.7,0.5,0.9,304.5,0.00,23.5,27.0,"21:07:44",1
"17/07/12","21:20",0.0,26.1,85.5,1003.4,295.1,0.5,0.9,330.5,0.00,23.5,27.1,"21:10:56",1
"17/07/12","21:30",0.0,25.8,86.0,1003.1,293.0,0.6,1.6,326.8,0.00,23.3,27.0,"21:28:32",1
"17/07/12","21:40",0.0,25.8,86.4,1003.4,324.6,1.1,2.1,311.8,0.00,23.4,27.0,"21:39:28",1
"17/07/12","21:50",0.0,25.9,86.6,1003.4,334.4,1.3,2.7,339.5,0.00,23.5,26.9,"21:49:04",1
"17/07/12","22:00",0.0,25.9,86.6,1003.6,317.2,0.7,1.6,336.8,0.00,23.5,26.7,"21:51:28",1
"17/07/12","22:10",0.0,25.7,87.0,1003.1,315.3,1.1,1.8,340.6,0.00,23.4,26.8,"22:07:24",1
"17/07/12","22:20",0.0,25.6,87.6,1003.6,333.9,1.0,2.0,336.7,0.00,23.4,26.6,"22:11:36",1
"17/07/12","22:30",0.0,25.3,88.0,1003.8,282.9,0.7,1.4,312.0,0.00,23.2,26.7,"22:26:56",1
"17/07/12","22:40",0.0,25.3,88.5,1003.4,333.2,1.5,2.5,342.0,0.00,23.3,26.6,"22:34:32",1
"17/07/12","22:50",0.0,25.3,88.6,1003.4,322.8,1.1,1.8,332.5,0.00,23.3,26.7,"22:49:28",1
"17/07/12","23:00",0.0,25.3,88.6,1003.4,331.6,1.3,2.4,338.5,0.00,23.3,26.4,"22:57:12",1
"17/07/12","23:10",0.0,25.3,88.6,1003.6,327.8,1.3,1.9,341.7,0.00,23.3,26.6,"23:02:48",1
"17/07/12","23:20",0.0,25.1,88.5,1003.4,285.3,0.7,2.1,330.1,0.00,23.1,26.4,"23:10:16",1
"17/07/12","23:30",0.0,25.1,88.6,1003.4,329.0,1.3,2.6,332.0,0.00,23.1,26.5,"23:24:56",1
"17/07/12","23:40",0.0,25.0,88.7,1003.6,318.2,0.8,1.6,331.5,0.00,23.0,26.4,"23:31:12",1
"17/07/12","23:50",0.0,24.9,89.1,1003.4,330.0,1.0,2.4,350.8,0.00,23.0,26.2,"23:47:12",1
"17/07/12","24:00",0.0,25.0,88.6,1003.4,327.7,1.1,2.9,334.7,0.00,23.0,26.1,"23:51:20",1
